Location: Katowice
(50.2611°N, 19.0242°E)
Time: 06:51:18
(UTC+02:00)

Tiros 1 despin weight - All Passes

Search period start: 24 July 2019 00:00
Search period end: 03 August 2019 00:00
Orbit: 594 x 643 km, 48.2° (Epoch: 22 July)

Date Brightness Start Highest point End Pass type
(mag) Time Alt. Az. Time Alt. Az. Time Alt. Az.
24 Jul - 11:17:19 10° SSW 11:21:02 24° SE 11:24:45 10° E daylight
24 Jul - 12:57:27 10° WSW 13:02:03 56° SSE 13:06:38 10° E daylight
24 Jul - 14:38:48 10° W 14:43:28 68° S 14:48:05 10° ESE daylight
24 Jul - 16:20:24 10° W 16:24:45 39° SSW 16:29:02 10° SE daylight
24 Jul - 18:03:24 10° WSW 18:05:25 13° SW 18:07:25 10° SSW daylight
25 Jul - 09:55:48 10° SSE 09:56:46 11° SE 09:57:44 10° ESE daylight
25 Jul - 11:33:07 10° SW 11:37:22 35° SSE 11:41:37 10° E daylight
25 Jul - 13:13:56 10° WSW 13:18:36 66° S 13:23:15 10° E daylight
25 Jul - 14:55:24 10° W 15:00:02 60° SSW 15:04:36 10° ESE daylight
25 Jul - 16:37:12 10° W 16:41:07 27° SSW 16:45:00 10° SSE daylight
26 Jul - 10:09:45 10° S 10:12:56 18° SE 10:16:07 10° E daylight
26 Jul - 11:49:18 10° SW 11:53:49 48° SSE 11:58:20 10° E daylight
26 Jul - 13:30:30 10° W 13:35:11 70° S 13:39:50 10° E daylight
26 Jul - 15:12:02 10° W 15:16:33 47° SSW 15:20:59 10° SE daylight
26 Jul - 16:54:20 10° W 16:57:23 17° SW 17:00:24 10° S daylight
27 Jul - 10:25:13 10° SSW 10:29:13 28° SSE 10:33:13 10° E daylight
27 Jul - 12:05:42 10° WSW 12:10:20 61° SSE 12:14:58 10° E daylight
27 Jul - 13:47:05 10° W 13:51:46 65° S 13:56:24 10° ESE daylight
27 Jul - 15:28:45 10° W 15:32:59 34° SSW 15:37:09 10° SE daylight
28 Jul - 09:02:35 10° SSE 09:04:53 14° SE 09:07:11 10° ESE daylight
28 Jul - 10:41:13 10° SW 10:45:36 40° SSE 10:50:00 10° E daylight
28 Jul - 12:22:13 10° WSW 12:26:54 69° S 12:31:34 10° E daylight
28 Jul - 14:03:43 10° W 14:08:18 55° SSW 14:12:51 10° ESE daylight
28 Jul - 15:45:39 10° W 15:49:18 23° SW 15:52:55 10° SSE daylight
29 Jul - 09:17:30 10° SSW 09:21:05 22° SE 09:24:42 10° E daylight
29 Jul - 10:57:30 10° WSW 11:02:04 54° SSE 11:06:39 10° E daylight
29 Jul - 12:38:48 10° W 12:43:29 69° S 12:48:09 10° ESE daylight
29 Jul - 14:20:22 10° W 14:24:47 41° SSW 14:29:10 10° SE daylight
29 Jul - 16:03:06 10° WSW 16:05:31 14° SW 16:07:56 10° S daylight
30 Jul - 09:33:14 10° SW 09:37:24 33° SSE 09:41:37 10° E daylight
30 Jul - 11:13:58 10° WSW 11:18:37 65° S 11:23:17 10° E daylight
30 Jul - 12:55:24 10° W 13:00:03 62° SSW 13:04:40 10° ESE daylight
30 Jul - 14:37:08 10° W 14:41:11 29° SSW 14:45:11 10° SSE daylight
31 Jul - 08:10:02 10° S 08:13:00 17° SE 08:15:59 10° E daylight
31 Jul - 09:49:22 10° SW 09:53:50 46° SSE 09:58:20 10° E daylight
31 Jul - 11:30:31 10° W 11:35:12 70° S 11:39:52 10° E daylight
31 Jul - 13:12:02 10° W 13:16:34 49° SSW 13:21:05 10° SE daylight
31 Jul - 14:54:12 10° W 14:57:27 19° SW 15:00:42 10° S daylight
01 Aug - 08:25:24 10° SSW 08:29:16 26° SSE 08:33:10 10° E daylight
01 Aug - 10:05:44 10° WSW 10:10:21 59° SSE 10:14:59 10° E daylight
01 Aug - 11:47:06 10° W 11:51:46 67° S 11:56:26 10° ESE daylight
01 Aug - 13:28:43 10° W 13:33:01 36° SSW 13:37:17 10° SE daylight
01 Aug - 15:12:20 10° WSW 15:13:38 11° SW 15:14:55 10° SSW daylight
02 Aug - 07:03:05 10° SSE 07:04:58 12° SE 07:06:52 10° ESE daylight
02 Aug - 08:41:19 10° SW 08:45:38 38° SSE 08:49:59 10° E daylight
02 Aug - 10:22:14 10° WSW 10:26:54 68° S 10:31:35 10° E daylight
02 Aug - 12:03:43 10° W 12:08:20 57° SSW 12:12:56 10° ESE daylight
02 Aug - 13:45:35 10° W 13:49:22 24° SSW 13:53:07 10° SSE daylight
